Year,Month,Day,Hour,Minute,Value (Times are PST for temperature in C)
2011,05,28,00,00,8.20
2011,05,28,00,01,8.20
2011,05,28,00,02,8.10
2011,05,28,00,03,8.10
2011,05,28,00,04,8.00
2011,05,28,00,05,8.00
2011,05,28,00,06,7.90
2011,05,28,00,07,7.90
2011,05,28,00,08,7.80
2011,05,28,00,09,7.70
2011,05,28,00,10,7.60
2011,05,28,00,11,7.60
2011,05,28,00,12,7.50
2011,05,28,00,13,7.40
2011,05,28,00,14,7.40
2011,05,28,00,15,7.30
2011,05,28,00,16,7.30
2011,05,28,00,17,7.20
2011,05,28,00,18,7.20
2011,05,28,00,19,7.20
2011,05,28,00,20,7.20
2011,05,28,00,21,7.20
2011,05,28,00,22,7.20
2011,05,28,00,23,7.20
2011,05,28,00,24,7.20
2011,05,28,00,25,7.30
2011,05,28,00,26,7.30
2011,05,28,00,27,7.30
2011,05,28,00,28,7.30
2011,05,28,00,29,7.30
2011,05,28,00,30,7.30
2011,05,28,00,31,7.30
2011,05,28,00,32,7.30
2011,05,28,00,33,7.30
2011,05,28,00,34,7.30
2011,05,28,00,35,7.20
2011,05,28,00,36,7.20
2011,05,28,00,37,7.30
2011,05,28,00,38,7.30
2011,05,28,00,39,7.30
2011,05,28,00,40,7.30
2011,05,28,00,41,7.30
2011,05,28,00,42,7.40
2011,05,28,00,43,7.40
2011,05,28,00,44,7.40
2011,05,28,00,45,7.40
2011,05,28,00,46,7.30
2011,05,28,00,47,7.30
2011,05,28,00,48,7.30
2011,05,28,00,49,7.20
2011,05,28,00,50,7.20
2011,05,28,00,51,7.20
2011,05,28,00,52,7.20
2011,05,28,00,53,7.10
2011,05,28,00,54,7.10
2011,05,28,00,55,7.00
2011,05,28,00,56,7.00
2011,05,28,00,57,7.00
2011,05,28,00,58,6.90
2011,05,28,00,59,7.00
2011,05,28,01,00,7.00
2011,05,28,01,01,7.10
2011,05,28,01,02,7.20
2011,05,28,01,03,7.20
2011,05,28,01,04,7.30
2011,05,28,01,05,7.30
2011,05,28,01,06,7.30
2011,05,28,01,07,7.30
2011,05,28,01,08,7.40
2011,05,28,01,09,7.40
2011,05,28,01,10,7.40
2011,05,28,01,11,7.50
2011,05,28,01,12,7.50
2011,05,28,01,13,7.60
2011,05,28,01,14,7.60
2011,05,28,01,15,7.60
2011,05,28,01,16,7.70
2011,05,28,01,17,7.70
2011,05,28,01,18,7.70
2011,05,28,01,19,7.70
2011,05,28,01,20,7.70
2011,05,28,01,21,7.60
2011,05,28,01,22,7.60
2011,05,28,01,23,7.60
2011,05,28,01,24,7.50
2011,05,28,01,25,7.40
2011,05,28,01,26,7.40
2011,05,28,01,27,7.40
2011,05,28,01,28,7.40
2011,05,28,01,29,7.40
2011,05,28,01,30,7.40
2011,05,28,01,31,7.30
2011,05,28,01,32,7.40
2011,05,28,01,33,7.40
2011,05,28,01,34,7.40
2011,05,28,01,35,7.40
2011,05,28,01,36,7.40
2011,05,28,01,37,7.40
2011,05,28,01,38,7.40
2011,05,28,01,39,7.30
2011,05,28,01,40,7.30
2011,05,28,01,41,7.30
2011,05,28,01,42,7.30
2011,05,28,01,43,7.30
2011,05,28,01,44,7.30
2011,05,28,01,45,7.40
2011,05,28,01,46,7.40
2011,05,28,01,47,7.40
2011,05,28,01,48,7.40
2011,05,28,01,49,7.40
2011,05,28,01,50,7.40
2011,05,28,01,51,7.50
2011,05,28,01,52,7.50
2011,05,28,01,53,7.50
2011,05,28,01,54,7.60
2011,05,28,01,55,7.60
2011,05,28,01,56,7.60
2011,05,28,01,57,7.50
2011,05,28,01,58,7.50
2011,05,28,01,59,7.50
2011,05,28,02,00,7.50
2011,05,28,02,01,7.40
2011,05,28,02,02,7.40
2011,05,28,02,03,7.40
2011,05,28,02,04,7.40
2011,05,28,02,05,7.40
2011,05,28,02,06,7.40
2011,05,28,02,07,7.30
2011,05,28,02,08,7.30
2011,05,28,02,09,7.30
2011,05,28,02,10,7.30
2011,05,28,02,11,7.30
2011,05,28,02,12,7.30
2011,05,28,02,13,7.30
2011,05,28,02,14,7.20
2011,05,28,02,15,7.20
2011,05,28,02,16,7.20
2011,05,28,02,17,7.20
2011,05,28,02,18,7.10
2011,05,28,02,19,7.10
2011,05,28,02,20,7.10
2011,05,28,02,21,7.00
2011,05,28,02,22,7.00
2011,05,28,02,23,6.90
2011,05,28,02,24,6.90
2011,05,28,02,25,6.90
2011,05,28,02,26,6.80
2011,05,28,02,27,6.80
2011,05,28,02,28,6.70
2011,05,28,02,29,6.70
2011,05,28,02,30,6.70
2011,05,28,02,31,6.60
2011,05,28,02,32,6.60
2011,05,28,02,33,6.60
2011,05,28,02,34,6.50
2011,05,28,02,35,6.50
2011,05,28,02,36,6.50
2011,05,28,02,37,6.40
2011,05,28,02,38,6.40
2011,05,28,02,39,6.40
2011,05,28,02,40,6.30
2011,05,28,02,41,6.30
2011,05,28,02,42,6.30
2011,05,28,02,43,6.30
2011,05,28,02,44,6.20
2011,05,28,02,45,6.20
2011,05,28,02,46,6.20
2011,05,28,02,47,6.20
2011,05,28,02,48,6.20
2011,05,28,02,49,6.20
2011,05,28,02,50,6.10
2011,05,28,02,51,6.10
2011,05,28,02,52,6.10
2011,05,28,02,53,6.10
2011,05,28,02,54,6.10
2011,05,28,02,55,6.10
2011,05,28,02,56,6.00
2011,05,28,02,57,6.00
2011,05,28,02,58,6.00
2011,05,28,02,59,5.90
2011,05,28,03,00,5.90
2011,05,28,03,01,5.90
2011,05,28,03,02,5.90
2011,05,28,03,03,5.90
2011,05,28,03,04,5.80
2011,05,28,03,05,5.80
2011,05,28,03,06,5.80
2011,05,28,03,07,5.80
2011,05,28,03,08,5.80
2011,05,28,03,09,5.80
2011,05,28,03,10,5.80
2011,05,28,03,11,5.70
2011,05,28,03,12,5.70
2011,05,28,03,13,5.70
2011,05,28,03,14,5.70
2011,05,28,03,15,5.70
2011,05,28,03,16,5.70
2011,05,28,03,17,5.70
2011,05,28,03,18,5.70
2011,05,28,03,19,5.70
2011,05,28,03,20,5.70
2011,05,28,03,21,5.70
2011,05,28,03,22,5.70
2011,05,28,03,23,5.70
2011,05,28,03,24,5.70
2011,05,28,03,25,5.70
2011,05,28,03,26,5.70
2011,05,28,03,27,5.70
2011,05,28,03,28,5.70
2011,05,28,03,29,5.70
2011,05,28,03,30,5.60
2011,05,28,03,31,5.60
2011,05,28,03,32,5.60
2011,05,28,03,33,5.60
2011,05,28,03,34,5.60
2011,05,28,03,35,5.60
2011,05,28,03,36,5.60
2011,05,28,03,37,5.60
2011,05,28,03,38,5.60
2011,05,28,03,39,5.60
2011,05,28,03,40,5.50
2011,05,28,03,41,5.50
2011,05,28,03,42,5.50
2011,05,28,03,43,5.50
2011,05,28,03,44,5.50
2011,05,28,03,45,5.50
2011,05,28,03,46,5.50
2011,05,28,03,47,5.50
2011,05,28,03,48,5.50
2011,05,28,03,49,5.50
2011,05,28,03,50,5.50
2011,05,28,03,51,5.50
2011,05,28,03,52,5.50
2011,05,28,03,53,5.40
2011,05,28,03,54,5.40
2011,05,28,03,55,5.40
2011,05,28,03,56,5.40
2011,05,28,03,57,5.40
2011,05,28,03,58,5.40
2011,05,28,03,59,5.40
2011,05,28,04,00,5.40
2011,05,28,04,01,5.40
2011,05,28,04,02,5.30
2011,05,28,04,03,5.30
2011,05,28,04,04,5.30
2011,05,28,04,05,5.30
2011,05,28,04,06,5.30
2011,05,28,04,07,5.30
2011,05,28,04,08,5.20
2011,05,28,04,09,5.20
2011,05,28,04,10,5.20
2011,05,28,04,11,5.20
2011,05,28,04,12,5.30
2011,05,28,04,13,5.30
2011,05,28,04,14,5.20
2011,05,28,04,15,5.20
2011,05,28,04,16,5.20
2011,05,28,04,17,5.20
2011,05,28,04,18,5.20
2011,05,28,04,19,5.20
2011,05,28,04,20,5.20
2011,05,28,04,21,5.20
2011,05,28,04,22,5.10
2011,05,28,04,23,5.10
2011,05,28,04,24,5.10
2011,05,28,04,25,5.10
2011,05,28,04,26,5.10
2011,05,28,04,27,5.10
2011,05,28,04,28,5.10
2011,05,28,04,29,5.00
2011,05,28,04,30,5.00
2011,05,28,04,31,5.00
2011,05,28,04,32,5.00
2011,05,28,04,33,5.00
2011,05,28,04,34,4.90
2011,05,28,04,35,4.90
2011,05,28,04,36,4.90
2011,05,28,04,37,4.90
2011,05,28,04,38,4.90
2011,05,28,04,39,4.80
2011,05,28,04,40,4.80
2011,05,28,04,41,4.80
2011,05,28,04,42,4.80
2011,05,28,04,43,4.80
2011,05,28,04,44,4.80
2011,05,28,04,45,4.70
2011,05,28,04,46,4.70
2011,05,28,04,47,4.70
2011,05,28,04,48,4.70
2011,05,28,04,49,4.70
2011,05,28,04,50,4.70
2011,05,28,04,51,4.70
2011,05,28,04,52,4.70
2011,05,28,04,53,4.70
2011,05,28,04,54,4.70
2011,05,28,04,55,4.70
2011,05,28,04,56,4.70
2011,05,28,04,57,4.70
2011,05,28,04,58,4.70
2011,05,28,04,59,4.70
2011,05,28,05,00,4.70
2011,05,28,05,01,4.70
2011,05,28,05,02,4.70
2011,05,28,05,03,4.70
2011,05,28,05,04,4.70
2011,05,28,05,05,4.70
2011,05,28,05,06,4.70
2011,05,28,05,07,4.70
2011,05,28,05,08,4.70
2011,05,28,05,09,4.70
2011,05,28,05,10,4.70
2011,05,28,05,11,4.70
2011,05,28,05,12,4.70
2011,05,28,05,13,4.70
2011,05,28,05,14,4.70
2011,05,28,05,15,4.70
2011,05,28,05,16,4.70
2011,05,28,05,17,4.70
2011,05,28,05,18,4.70
2011,05,28,05,19,4.70
2011,05,28,05,20,4.70
2011,05,28,05,21,4.70
2011,05,28,05,22,4.80
2011,05,28,05,23,4.80
2011,05,28,05,24,4.70
2011,05,28,05,25,4.70
2011,05,28,05,26,4.70
2011,05,28,05,27,4.70
2011,05,28,05,28,4.70
2011,05,28,05,29,4.70
2011,05,28,05,30,4.70
2011,05,28,05,31,4.70
2011,05,28,05,32,4.70
2011,05,28,05,33,4.70
2011,05,28,05,34,4.70
2011,05,28,05,35,4.70
2011,05,28,05,36,4.70
2011,05,28,05,37,4.70
2011,05,28,05,38,4.80
2011,05,28,05,39,4.80
2011,05,28,05,40,4.80
2011,05,28,05,41,4.80
2011,05,28,05,42,4.80
2011,05,28,05,43,4.80
2011,05,28,05,44,4.80
2011,05,28,05,45,4.90
2011,05,28,05,46,4.90
2011,05,28,05,47,4.90
2011,05,28,05,48,4.90
2011,05,28,05,49,4.90
2011,05,28,05,50,4.90
2011,05,28,05,51,4.90
2011,05,28,05,52,4.90
2011,05,28,05,53,4.90
2011,05,28,05,54,4.90
2011,05,28,05,55,4.90
2011,05,28,05,56,4.90
2011,05,28,05,57,4.90
2011,05,28,05,58,5.00
2011,05,28,05,59,5.00
2011,05,28,06,00,5.00
2011,05,28,06,01,5.00
2011,05,28,06,02,5.10
2011,05,28,06,03,5.10
2011,05,28,06,04,5.10
2011,05,28,06,05,5.10
2011,05,28,06,06,5.10
2011,05,28,06,07,5.10
2011,05,28,06,08,5.20
2011,05,28,06,09,5.20
2011,05,28,06,10,5.20
2011,05,28,06,11,5.20
2011,05,28,06,12,5.20
2011,05,28,06,13,5.20
2011,05,28,06,14,5.20
2011,05,28,06,15,5.20
2011,05,28,06,16,5.20
2011,05,28,06,17,5.20
2011,05,28,06,18,5.20
2011,05,28,06,19,5.20
2011,05,28,06,20,5.20
2011,05,28,06,21,5.20
2011,05,28,06,22,5.20
2011,05,28,06,23,5.20
2011,05,28,06,24,5.20
2011,05,28,06,25,5.20
2011,05,28,06,26,5.20
2011,05,28,06,27,5.20
2011,05,28,06,28,5.20
2011,05,28,06,29,5.20
2011,05,28,06,30,5.20
2011,05,28,06,31,5.20
2011,05,28,06,32,5.20
2011,05,28,06,33,5.30
2011,05,28,06,34,5.30
2011,05,28,06,35,5.30
2011,05,28,06,36,5.30
2011,05,28,06,37,5.30
2011,05,28,06,38,5.30
2011,05,28,06,39,5.30
2011,05,28,06,40,5.30
2011,05,28,06,41,5.30
2011,05,28,06,42,5.30
2011,05,28,06,43,5.40
2011,05,28,06,44,5.40
2011,05,28,06,45,5.40
2011,05,28,06,46,5.40
2011,05,28,06,47,5.50
2011,05,28,06,48,5.50
2011,05,28,06,49,5.50
2011,05,28,06,50,5.50
2011,05,28,06,51,5.60
2011,05,28,06,52,5.60
2011,05,28,06,53,5.60
2011,05,28,06,54,5.60
2011,05,28,06,55,5.60
2011,05,28,06,56,5.60
2011,05,28,06,57,5.60
2011,05,28,06,58,5.70
2011,05,28,06,59,5.70
2011,05,28,07,00,5.70
2011,05,28,07,01,5.70
2011,05,28,07,02,5.80
2011,05,28,07,03,5.80
2011,05,28,07,04,5.80
2011,05,28,07,05,5.80
2011,05,28,07,06,5.80
2011,05,28,07,07,5.90
2011,05,28,07,08,5.90
2011,05,28,07,09,5.90
2011,05,28,07,10,5.90
2011,05,28,07,11,5.90
2011,05,28,07,12,6.00
2011,05,28,07,13,6.00
2011,05,28,07,14,6.00
2011,05,28,07,15,6.10
2011,05,28,07,16,6.10
2011,05,28,07,17,6.10
2011,05,28,07,18,6.10
2011,05,28,07,19,6.10
2011,05,28,07,20,6.20
2011,05,28,07,21,6.20
2011,05,28,07,22,6.20
2011,05,28,07,23,6.20
2011,05,28,07,24,6.20
2011,05,28,07,25,6.30
2011,05,28,07,26,6.30
2011,05,28,07,27,6.30
2011,05,28,07,28,6.30
2011,05,28,07,29,6.40
2011,05,28,07,30,6.40
2011,05,28,07,31,6.50
2011,05,28,07,32,6.50
2011,05,28,07,33,6.50
2011,05,28,07,34,6.60
2011,05,28,07,35,6.60
2011,05,28,07,36,6.70
2011,05,28,07,37,6.70
2011,05,28,07,38,6.70
2011,05,28,07,39,6.80
2011,05,28,07,40,6.80
2011,05,28,07,41,6.80
2011,05,28,07,42,6.80
2011,05,28,07,43,6.90
2011,05,28,07,44,6.90
2011,05,28,07,45,7.00
2011,05,28,07,46,7.00
2011,05,28,07,47,7.10
2011,05,28,07,48,7.10
2011,05,28,07,49,7.20
2011,05,28,07,50,7.20
2011,05,28,07,51,7.30
2011,05,28,07,52,7.30
2011,05,28,07,53,7.30
2011,05,28,07,54,7.30
2011,05,28,07,55,7.40
2011,05,28,07,56,7.40
2011,05,28,07,57,7.40
2011,05,28,07,58,7.40
2011,05,28,07,59,7.50
2011,05,28,08,00,7.50
2011,05,28,08,01,7.60
2011,05,28,08,02,7.60
2011,05,28,08,03,7.60
2011,05,28,08,04,7.70
2011,05,28,08,05,7.70
2011,05,28,08,06,7.80
2011,05,28,08,07,7.80
2011,05,28,08,08,7.90
2011,05,28,08,09,7.90
2011,05,28,08,10,8.00
2011,05,28,08,11,8.00
2011,05,28,08,12,8.10
2011,05,28,08,13,8.10
2011,05,28,08,14,8.20
2011,05,28,08,15,8.20
2011,05,28,08,16,8.30
2011,05,28,08,17,8.40
2011,05,28,08,18,8.40
2011,05,28,08,19,8.50
2011,05,28,08,20,8.50
2011,05,28,08,21,8.60
2011,05,28,08,22,8.60
2011,05,28,08,23,8.60
2011,05,28,08,24,8.70
2011,05,28,08,25,8.70
2011,05,28,08,26,8.70
2011,05,28,08,27,8.80
2011,05,28,08,28,8.80
2011,05,28,08,29,8.90
2011,05,28,08,30,8.90
2011,05,28,08,31,9.00
2011,05,28,08,32,9.00
2011,05,28,08,33,9.00
2011,05,28,08,34,9.00
2011,05,28,08,35,9.10
2011,05,28,08,36,9.10
2011,05,28,08,37,9.10
2011,05,28,08,38,9.20
2011,05,28,08,39,9.20
2011,05,28,08,40,9.20
2011,05,28,08,41,9.30
2011,05,28,08,42,9.30
2011,05,28,08,43,9.30
2011,05,28,08,44,9.30
2011,05,28,08,45,9.40
2011,05,28,08,46,9.40
2011,05,28,08,47,9.40
2011,05,28,08,48,9.50
2011,05,28,08,49,9.50
2011,05,28,08,50,9.60
2011,05,28,08,51,9.70
2011,05,28,08,52,9.70
2011,05,28,08,53,9.70
2011,05,28,08,54,9.70
2011,05,28,08,55,9.80
2011,05,28,08,56,9.80
2011,05,28,08,57,9.80
2011,05,28,08,58,9.90
2011,05,28,08,59,9.90
2011,05,28,09,00,10.00
2011,05,28,09,01,10.00
2011,05,28,09,02,10.10
2011,05,28,09,03,10.10
2011,05,28,09,04,10.10
2011,05,28,09,05,10.10
2011,05,28,09,06,10.20
2011,05,28,09,07,10.20
2011,05,28,09,08,10.20
2011,05,28,09,09,10.20
2011,05,28,09,10,10.30
2011,05,28,09,11,10.30
2011,05,28,09,12,10.30
2011,05,28,09,13,10.40
2011,05,28,09,14,10.40
2011,05,28,09,15,10.50
2011,05,28,09,16,10.60
2011,05,28,09,17,10.70
2011,05,28,09,18,10.80
2011,05,28,09,19,11.00
2011,05,28,09,20,11.00
2011,05,28,09,21,11.10
2011,05,28,09,22,11.20
2011,05,28,09,23,11.30
2011,05,28,09,24,11.30
2011,05,28,09,25,11.40
2011,05,28,09,26,11.40
2011,05,28,09,27,11.50
2011,05,28,09,28,11.50
2011,05,28,09,29,11.60
2011,05,28,09,30,11.60
2011,05,28,09,31,11.60
2011,05,28,09,32,11.60
2011,05,28,09,33,11.50
2011,05,28,09,34,11.50
2011,05,28,09,35,11.50
2011,05,28,09,36,11.50
2011,05,28,09,37,11.60
2011,05,28,09,38,11.60
2011,05,28,09,39,11.60
2011,05,28,09,40,11.60
2011,05,28,09,41,11.60
2011,05,28,09,42,11.60
2011,05,28,09,43,11.60
2011,05,28,09,44,11.60
2011,05,28,09,45,11.60
2011,05,28,09,46,11.60
2011,05,28,09,47,11.60
2011,05,28,09,48,11.70
2011,05,28,09,49,11.70
2011,05,28,09,50,11.70
2011,05,28,09,51,11.60
2011,05,28,09,52,11.60
2011,05,28,09,53,11.60
2011,05,28,09,54,11.50
2011,05,28,09,55,11.40
2011,05,28,09,56,11.40
2011,05,28,09,57,11.40
2011,05,28,09,58,11.30
2011,05,28,09,59,11.30
2011,05,28,10,00,11.30
2011,05,28,10,01,11.30
2011,05,28,10,02,11.40
2011,05,28,10,03,11.40
2011,05,28,10,04,11.50
2011,05,28,10,05,11.50
2011,05,28,10,06,11.50
2011,05,28,10,07,11.50
2011,05,28,10,08,11.50
2011,05,28,10,09,11.40
2011,05,28,10,10,11.40
2011,05,28,10,11,11.30
2011,05,28,10,12,11.30
2011,05,28,10,13,11.30
2011,05,28,10,14,11.30
2011,05,28,10,15,11.30
2011,05,28,10,16,11.30
2011,05,28,10,17,11.30
2011,05,28,10,18,11.40
2011,05,28,10,19,11.40
2011,05,28,10,20,11.40
2011,05,28,10,21,11.50
2011,05,28,10,22,11.50
2011,05,28,10,23,11.50
2011,05,28,10,24,11.60
2011,05,28,10,25,11.60
2011,05,28,10,26,11.60
2011,05,28,10,27,11.60
2011,05,28,10,28,11.70
2011,05,28,10,29,11.70
2011,05,28,10,30,11.70
2011,05,28,10,31,11.60
2011,05,28,10,32,11.60
2011,05,28,10,33,11.60
2011,05,28,10,34,11.60
2011,05,28,10,35,11.50
2011,05,28,10,36,11.50
2011,05,28,10,37,11.40
2011,05,28,10,38,11.40
2011,05,28,10,39,11.30
2011,05,28,10,40,11.30
2011,05,28,10,41,11.20
2011,05,28,10,42,11.10
2011,05,28,10,43,11.00
2011,05,28,10,44,10.90
2011,05,28,10,45,10.90
2011,05,28,10,46,10.80
2011,05,28,10,47,10.80
2011,05,28,10,48,10.70
2011,05,28,10,49,10.70
2011,05,28,10,50,10.60
2011,05,28,10,51,10.50
2011,05,28,10,52,10.40
2011,05,28,10,53,10.30
2011,05,28,10,54,10.20
2011,05,28,10,55,10.10
2011,05,28,10,56,10.00
2011,05,28,10,57,9.90
2011,05,28,10,58,9.80
2011,05,28,10,59,9.80
2011,05,28,11,00,9.80
2011,05,28,11,01,9.70
2011,05,28,11,02,9.70
2011,05,28,11,03,9.70
2011,05,28,11,04,9.60
2011,05,28,11,05,9.60
2011,05,28,11,06,9.60
2011,05,28,11,07,9.50
2011,05,28,11,08,9.50
2011,05,28,11,09,9.40
2011,05,28,11,10,9.40
2011,05,28,11,11,9.40
2011,05,28,11,12,9.30
2011,05,28,11,13,9.30
2011,05,28,11,14,9.30
2011,05,28,11,15,9.30
2011,05,28,11,16,9.30
2011,05,28,11,17,9.30
2011,05,28,11,18,9.30
2011,05,28,11,19,9.30
2011,05,28,11,20,9.30
2011,05,28,11,21,9.30
2011,05,28,11,22,9.30
2011,05,28,11,23,9.30
2011,05,28,11,24,9.30
2011,05,28,11,25,9.30
2011,05,28,11,26,9.30
2011,05,28,11,27,9.30
2011,05,28,11,28,9.30
2011,05,28,11,29,9.30
2011,05,28,11,30,9.30
2011,05,28,11,31,9.30
2011,05,28,11,32,9.30
2011,05,28,11,33,9.40
2011,05,28,11,34,9.40
2011,05,28,11,35,9.40
2011,05,28,11,36,9.40
2011,05,28,11,37,9.40
2011,05,28,11,38,9.40
2011,05,28,11,39,9.40
2011,05,28,11,40,9.50
2011,05,28,11,41,9.50
2011,05,28,11,42,9.50
2011,05,28,11,43,9.60
2011,05,28,11,44,9.70
2011,05,28,11,45,9.80
2011,05,28,11,46,9.90
2011,05,28,11,47,10.00
2011,05,28,11,48,10.10
2011,05,28,11,49,10.10
2011,05,28,11,50,10.10
2011,05,28,11,51,10.10
2011,05,28,11,52,10.20
2011,05,28,11,53,10.20
2011,05,28,11,54,10.20
2011,05,28,11,55,10.20
2011,05,28,11,56,10.20
2011,05,28,11,57,10.20
2011,05,28,11,58,10.30
2011,05,28,11,59,10.30
2011,05,28,12,00,10.30
2011,05,28,12,01,10.30
2011,05,28,12,02,10.30
2011,05,28,12,03,10.30
2011,05,28,12,04,10.30
2011,05,28,12,05,10.30
2011,05,28,12,06,10.30
2011,05,28,12,07,10.30
2011,05,28,12,08,10.30
2011,05,28,12,09,10.40
2011,05,28,12,10,10.40
2011,05,28,12,11,10.40
2011,05,28,12,12,10.40
2011,05,28,12,13,10.50
2011,05,28,12,14,10.60
2011,05,28,12,15,10.60
2011,05,28,12,16,10.60
2011,05,28,12,17,10.60
2011,05,28,12,18,10.60
2011,05,28,12,19,10.70
2011,05,28,12,20,10.70
2011,05,28,12,21,10.70
2011,05,28,12,22,10.70
2011,05,28,12,23,10.70
2011,05,28,12,24,10.70
2011,05,28,12,25,10.70
2011,05,28,12,26,10.80
2011,05,28,12,27,10.80
2011,05,28,12,28,10.80
2011,05,28,12,29,10.80
2011,05,28,12,30,10.90
2011,05,28,12,31,10.90
2011,05,28,12,32,11.00
2011,05,28,12,33,11.00
2011,05,28,12,34,11.20
2011,05,28,12,35,11.30
2011,05,28,12,36,11.30
2011,05,28,12,37,11.30
2011,05,28,12,38,11.30
2011,05,28,12,39,11.30
2011,05,28,12,40,11.30
2011,05,28,12,41,11.40
2011,05,28,12,42,11.50
2011,05,28,12,43,11.50
2011,05,28,12,44,11.60
2011,05,28,12,45,11.60
2011,05,28,12,46,11.60
2011,05,28,12,47,11.60
2011,05,28,12,48,11.60
2011,05,28,12,49,11.70
2011,05,28,12,50,11.70
2011,05,28,12,51,11.80
2011,05,28,12,52,11.80
2011,05,28,12,53,11.90
2011,05,28,12,54,12.00
2011,05,28,12,55,12.10
2011,05,28,12,56,12.20
2011,05,28,12,57,12.20
2011,05,28,12,58,12.20
2011,05,28,12,59,12.20
2011,05,28,13,00,12.30
2011,05,28,13,01,12.50
2011,05,28,13,02,12.60
2011,05,28,13,03,12.70
2011,05,28,13,04,12.80
2011,05,28,13,05,12.80
2011,05,28,13,06,12.70
2011,05,28,13,07,12.60
2011,05,28,13,08,12.70
2011,05,28,13,09,12.70
2011,05,28,13,10,12.80
2011,05,28,13,11,12.80
2011,05,28,13,12,12.80
2011,05,28,13,13,12.90
2011,05,28,13,14,13.00
2011,05,28,13,15,13.00
2011,05,28,13,16,12.90
2011,05,28,13,17,13.00
2011,05,28,13,18,12.90
2011,05,28,13,19,13.00
2011,05,28,13,20,13.00
2011,05,28,13,21,13.00
2011,05,28,13,22,13.10
2011,05,28,13,23,13.10
2011,05,28,13,24,13.20
2011,05,28,13,25,13.20
2011,05,28,13,26,13.30
2011,05,28,13,27,13.40
2011,05,28,13,28,13.40
2011,05,28,13,29,13.40
2011,05,28,13,30,13.40
2011,05,28,13,31,13.40
2011,05,28,13,32,13.30
2011,05,28,13,33,13.30
2011,05,28,13,34,13.20
2011,05,28,13,35,13.20
2011,05,28,13,36,13.10
2011,05,28,13,37,13.00
2011,05,28,13,38,12.80
2011,05,28,13,39,12.70
2011,05,28,13,40,12.60
2011,05,28,13,41,12.50
2011,05,28,13,42,12.40
2011,05,28,13,43,12.40
2011,05,28,13,44,12.30
2011,05,28,13,45,12.30
2011,05,28,13,46,12.30
2011,05,28,13,47,12.30
2011,05,28,13,48,12.30
2011,05,28,13,49,12.20
2011,05,28,13,50,12.20
2011,05,28,13,51,12.10
2011,05,28,13,52,12.00
2011,05,28,13,53,11.90
2011,05,28,13,54,11.80
2011,05,28,13,55,11.80
2011,05,28,13,56,11.80
2011,05,28,13,57,11.80
2011,05,28,13,58,11.80
2011,05,28,13,59,11.90
2011,05,28,14,00,11.90
2011,05,28,14,01,11.90
2011,05,28,14,02,11.90
2011,05,28,14,03,11.80
2011,05,28,14,04,11.80
2011,05,28,14,05,11.80
2011,05,28,14,06,11.70
2011,05,28,14,07,11.60
2011,05,28,14,08,11.60
2011,05,28,14,09,11.60
2011,05,28,14,10,11.60
2011,05,28,14,11,11.50
2011,05,28,14,12,11.50
2011,05,28,14,13,11.60
2011,05,28,14,14,11.60
2011,05,28,14,15,11.70
2011,05,28,14,16,11.70
2011,05,28,14,17,11.70
2011,05,28,14,18,11.70
2011,05,28,14,19,11.70
2011,05,28,14,20,11.70
2011,05,28,14,21,11.70
2011,05,28,14,22,11.60
2011,05,28,14,23,11.60
2011,05,28,14,24,11.50
2011,05,28,14,25,11.50
2011,05,28,14,26,11.40
2011,05,28,14,27,11.30
2011,05,28,14,28,11.30
2011,05,28,14,29,11.20
2011,05,28,14,30,11.10
2011,05,28,14,31,11.00
2011,05,28,14,32,10.90
2011,05,28,14,33,10.80
2011,05,28,14,34,10.80
2011,05,28,14,35,10.70
2011,05,28,14,36,10.60
2011,05,28,14,37,10.60
2011,05,28,14,38,10.50
2011,05,28,14,39,10.40
2011,05,28,14,40,10.40
2011,05,28,14,41,10.30
2011,05,28,14,42,10.30
2011,05,28,14,43,10.30
2011,05,28,14,44,10.20
2011,05,28,14,45,10.20
2011,05,28,14,46,10.30
2011,05,28,14,47,10.30
2011,05,28,14,48,10.30
2011,05,28,14,49,10.30
2011,05,28,14,50,10.40
2011,05,28,14,51,10.40
2011,05,28,14,52,10.60
2011,05,28,14,53,10.70
2011,05,28,14,54,10.70
2011,05,28,14,55,10.80
2011,05,28,14,56,10.80
2011,05,28,14,57,10.90
2011,05,28,14,58,10.90
2011,05,28,14,59,11.00
2011,05,28,15,00,11.10
2011,05,28,15,01,11.10
2011,05,28,15,02,11.10
2011,05,28,15,03,11.10
2011,05,28,15,04,11.10
2011,05,28,15,05,11.10
2011,05,28,15,06,11.20
2011,05,28,15,07,11.20
2011,05,28,15,08,11.20
2011,05,28,15,09,11.30
2011,05,28,15,10,11.50
2011,05,28,15,11,11.60
2011,05,28,15,12,11.60
2011,05,28,15,13,11.70
2011,05,28,15,14,11.70
2011,05,28,15,15,11.70
2011,05,28,15,16,11.80
2011,05,28,15,17,11.90
2011,05,28,15,18,11.90
2011,05,28,15,19,12.00
2011,05,28,15,20,12.10
2011,05,28,15,21,12.10
2011,05,28,15,22,12.10
2011,05,28,15,23,12.30
2011,05,28,15,24,12.40
2011,05,28,15,25,12.40
2011,05,28,15,26,12.40
2011,05,28,15,27,12.50
2011,05,28,15,28,12.50
2011,05,28,15,29,12.60
2011,05,28,15,30,12.70
2011,05,28,15,31,12.80
2011,05,28,15,32,12.90
2011,05,28,15,33,13.00
2011,05,28,15,34,13.10
2011,05,28,15,35,13.20
2011,05,28,15,36,13.10
2011,05,28,15,37,13.10
2011,05,28,15,38,13.10
2011,05,28,15,39,13.10
2011,05,28,15,40,13.20
2011,05,28,15,41,13.20
2011,05,28,15,42,13.10
2011,05,28,15,43,13.10
2011,05,28,15,44,13.00
2011,05,28,15,45,13.00
2011,05,28,15,46,13.00
2011,05,28,15,47,13.00
2011,05,28,15,48,13.00
2011,05,28,15,49,13.10
2011,05,28,15,50,13.20
2011,05,28,15,51,13.20
2011,05,28,15,52,13.30
2011,05,28,15,53,13.30
2011,05,28,15,54,13.30
2011,05,28,15,55,13.40
2011,05,28,15,56,13.40
2011,05,28,15,57,13.40
2011,05,28,15,58,13.40
2011,05,28,15,59,13.60
2011,05,28,16,00,13.70
2011,05,28,16,01,13.70
2011,05,28,16,02,13.70
2011,05,28,16,03,13.60
2011,05,28,16,04,13.60
2011,05,28,16,05,13.60
2011,05,28,16,06,13.70
2011,05,28,16,07,13.70
2011,05,28,16,08,13.60
2011,05,28,16,09,13.60
2011,05,28,16,10,13.60
2011,05,28,16,11,13.60
2011,05,28,16,12,13.50
2011,05,28,16,13,13.40
2011,05,28,16,14,13.30
2011,05,28,16,15,13.30
2011,05,28,16,16,13.30
2011,05,28,16,17,13.40
2011,05,28,16,18,13.50
2011,05,28,16,19,13.50
2011,05,28,16,20,13.60
2011,05,28,16,21,13.60
2011,05,28,16,22,13.70
2011,05,28,16,23,13.80
2011,05,28,16,24,13.80
2011,05,28,16,25,13.80
2011,05,28,16,26,13.80
2011,05,28,16,27,13.80
2011,05,28,16,28,13.80
2011,05,28,16,29,13.70
2011,05,28,16,30,13.70
2011,05,28,16,31,13.60
2011,05,28,16,32,13.50
2011,05,28,16,33,13.50
2011,05,28,16,34,13.50
2011,05,28,16,35,13.60
2011,05,28,16,36,13.60
2011,05,28,16,37,13.60
2011,05,28,16,38,13.60
2011,05,28,16,39,13.60
2011,05,28,16,40,13.50
2011,05,28,16,41,13.40
2011,05,28,16,42,13.30
2011,05,28,16,43,13.30
2011,05,28,16,44,13.20
2011,05,28,16,45,13.20
2011,05,28,16,46,13.10
2011,05,28,16,47,13.00
2011,05,28,16,48,13.00
2011,05,28,16,49,13.00
2011,05,28,16,50,13.00
2011,05,28,16,51,13.00
2011,05,28,16,52,13.10
2011,05,28,16,53,13.20
2011,05,28,16,54,13.20
2011,05,28,16,55,13.30
2011,05,28,16,56,13.20
2011,05,28,16,57,13.20
2011,05,28,16,58,13.10
2011,05,28,16,59,13.10
2011,05,28,17,00,13.20
2011,05,28,17,01,13.20
2011,05,28,17,02,13.20
2011,05,28,17,03,13.20
2011,05,28,17,04,13.20
2011,05,28,17,05,13.20
2011,05,28,17,06,13.10
2011,05,28,17,07,13.10
2011,05,28,17,08,13.00
2011,05,28,17,09,13.10
2011,05,28,17,10,13.20
2011,05,28,17,11,13.20
2011,05,28,17,12,13.20
2011,05,28,17,13,13.20
2011,05,28,17,14,13.20
2011,05,28,17,15,13.10
2011,05,28,17,16,13.10
2011,05,28,17,17,13.20
2011,05,28,17,18,13.20
2011,05,28,17,19,13.20
2011,05,28,17,20,13.20
2011,05,28,17,21,13.20
2011,05,28,17,22,13.20
2011,05,28,17,23,13.20
2011,05,28,17,24,13.20
2011,05,28,17,25,13.20
2011,05,28,17,26,13.20
2011,05,28,17,27,13.30
2011,05,28,17,28,13.40
2011,05,28,17,29,13.50
2011,05,28,17,30,13.60
2011,05,28,17,31,13.50
2011,05,28,17,32,13.40
2011,05,28,17,33,13.30
2011,05,28,17,34,13.30
2011,05,28,17,35,13.20
2011,05,28,17,36,13.20
2011,05,28,17,37,13.20
2011,05,28,17,38,13.10
2011,05,28,17,39,13.10
2011,05,28,17,40,13.10
2011,05,28,17,41,13.00
2011,05,28,17,42,13.00
2011,05,28,17,43,13.00
2011,05,28,17,44,13.00
2011,05,28,17,45,13.00